Hourly Data Report for September 24, 2017

All times are specified in Local Standard Time (LST). Add 1 hour to adjust for Daylight Saving Time where and when it is observed.

NORTH CAPE
PRINCE EDWARD ISLAND

47°03'29.000" N
63°59'55.000" W
7.60 m
8300516
71987
WNE

Download Data

Hourly Data (September 2017)
Hourly Data Report for September 24, 2017
Temp Definition
°C
Dew Point Temp Definition
°C
Rel Hum Definition
%
Wind Dir Definition
10's deg

Wind Spd Definition
km/h
Visibility Definition
km
Stn Press Definition
kPa
Hmdx Definition


Wind Chill Definition


Weather Definition


TIME
00:00 15.8 11.8 77 10 20   101.64     LegendNANA
01:00 15.2 12.1 82 12 14   101.64     LegendNANA
02:00 14.9 12.4 85 11 12   101.62     LegendNANA
03:00 14.6 12.4 86 9 8   101.63     LegendNANA
04:00 13.7 12.0 89 12 7   101.60     LegendNANA
05:00 14.3 12.6 90 12 10   101.60     LegendNANA
06:00 15.0 12.6 85 13 15   101.60     LegendNANA
07:00 15.6 12.7 83 14 15   101.59     LegendNANA
08:00 15.8 13.1 84 13 14   101.58     LegendNANA
09:00 15.7 13.4 87 8 13   101.65     LegendNANA
10:00 15.3 13.6 90 11 18   101.58     LegendNANA
11:00 15.5 13.5 88 11 25   101.46     LegendNANA
12:00 15.8 13.4 86 12 22   101.41     LegendNANA
13:00 16.8 13.8 83 14 22   101.35     LegendNANA
14:00 17.9 14.2 79 15 12   101.33     LegendNANA
15:00 19.1 14.5 75 15 11   101.31     LegendNANA
16:00 17.9 14.5 80 26 16   101.32     LegendNANA
17:00 16.4 14.5 88 32 13   101.38     LegendNANA
18:00 15.9 13.8 87 33 20   101.39     LegendNANA
19:00 15.5 13.7 89 34 22   101.46     LegendNANA
20:00 15.0 13.5 91 36 13   101.54     LegendNANA
21:00 14.6 13.2 91 34 17   101.56     LegendNANA
22:00 14.4 12.7 90 35 20   101.56     LegendNANA
23:00 14.5 12.6 89 35 20   101.60     LegendNANA

Notes on Data Quality.

Legend

  • E = Estimated
  • M = Missing
  • NA = Not Available
  • ‡ = Partner data that is not subject to review by the National Climate Archives
Date modified: